When you browse on this site, cookies collect data to enhance your experience and personalize the content and advertising you see.
Visit our Privacy Policy to learn more. By continuing to use the site, you agree to this use of cookies and data.

Stündliche Wetter Bolshie Ledinki

Heute, 23 September, Mittwoch

Zeit Temperatur Niederschläge Wind Luftdruck Luftfeuchtigkeit
00:00 +11°C° 0 mm 3 m/S 742 mmHg 90%
01:00 +10°C° 0 mm 2 m/S 742 mmHg 93%
02:00 +9°C° 0 mm 2 m/S 742 mmHg 95%
03:00 +9°C° 0 mm 2 m/S 742 mmHg 95%
04:00 +9°C° 0 mm 2 m/S 742 mmHg 95%
05:00 +9°C° 0 mm 1 m/S 743 mmHg 95%
06:00 +11°C° 0 mm 1 m/S 743 mmHg 91%
07:00 +12°C° 0 mm 1 m/S 743 mmHg 87%
08:00 +13°C° 0 mm 2 m/S 743 mmHg 83%
09:00 +15°C° 0 mm 2 m/S 743 mmHg 77%
10:00 +17°C° 0 mm 2 m/S 743 mmHg 71%
11:00 +19°C° 0 mm 2 m/S 743 mmHg 64%
12:00 +19°C° 0 mm 2 m/S 743 mmHg 63%
13:00 +20°C° 0 mm 2 m/S 743 mmHg 62%
14:00 +20°C° 0 mm 2 m/S 743 mmHg 61%
15:00 +19°C° 0 mm 2 m/S 743 mmHg 69%
16:00 +18°C° 0 mm 2 m/S 742 mmHg 76%
17:00 +17°C° 0 mm 2 m/S 742 mmHg 83%
18:00 +16°C° 0 mm 2 m/S 742 mmHg 86%
19:00 +15°C° 0 mm 2 m/S 742 mmHg 90%
20:00 +14°C° 0 mm 2 m/S 742 mmHg 94%
21:00 +14°C° 0 mm 2 m/S 742 mmHg 94%
22:00 +13°C° 0 mm 2 m/S 742 mmHg 95%
23:00 +13°C° 0 mm 2 m/S 742 mmHg 95%

Morgen, 24 September, Donnerstag

Zeit Temperatur Niederschläge Wind Luftdruck Luftfeuchtigkeit
00:00 +13°C° 0 mm 2 m/S 743 mmHg 95%
01:00 +12°C° 0 mm 2 m/S 743 mmHg 94%
02:00 +12°C° 0 mm 2 m/S 743 mmHg 94%
03:00 +12°C° 0 mm 2 m/S 743 mmHg 93%
04:00 +10°C° 0 mm 2 m/S 743 mmHg 92%
05:00 +10°C° 0 mm 2 m/S 743 mmHg 91%
06:00 +12°C° 0 mm 2 m/S 743 mmHg 86%
07:00 +13°C° 0 mm 2 m/S 743 mmHg 81%
08:00 +13°C° 0 mm 3 m/S 744 mmHg 75%
09:00 +14°C° 0 mm 3 m/S 744 mmHg 70%
10:00 +17°C° 0 mm 3 m/S 744 mmHg 64%
11:00 +18°C° 0 mm 3 m/S 744 mmHg 59%
12:00 +19°C° 0 mm 3 m/S 744 mmHg 57%
13:00 +19°C° 0 mm 3 m/S 744 mmHg 55%
14:00 +20°C° 0 mm 3 m/S 744 mmHg 53%
15:00 +19°C° 0 mm 2 m/S 744 mmHg 60%
16:00 +17°C° 0 mm 2 m/S 744 mmHg 68%
17:00 +16°C° 0 mm 2 m/S 743 mmHg 75%
18:00 +15°C° 0 mm 2 m/S 744 mmHg 79%
19:00 +14°C° 0 mm 2 m/S 744 mmHg 82%
20:00 +13°C° 0 mm 2 m/S 744 mmHg 86%
21:00 +12°C° 0 mm 2 m/S 744 mmHg 87%
22:00 +12°C° 0 mm 2 m/S 744 mmHg 88%
23:00 +12°C° 0 mm 2 m/S 744 mmHg 89%

übermorgen, 25 September, Freitag

Zeit Temperatur Niederschläge Wind Luftdruck Luftfeuchtigkeit
00:00 +10°C° 0 mm 2 m/S 744 mmHg 90%
01:00 +10°C° 0 mm 2 m/S 744 mmHg 90%
02:00 +10°C° 0 mm 2 m/S 745 mmHg 91%
03:00 +10°C° 0 mm 2 m/S 744 mmHg 91%
04:00 +9°C° 0 mm 2 m/S 744 mmHg 90%
05:00 +9°C° 0 mm 2 m/S 744 mmHg 90%
06:00 +12°C° 0 mm 2 m/S 744 mmHg 85%
07:00 +13°C° 0 mm 2 m/S 744 mmHg 79%
08:00 +14°C° 0 mm 2 m/S 744 mmHg 74%
09:00 +16°C° 0 mm 3 m/S 744 mmHg 69%
10:00 +18°C° 0 mm 3 m/S 744 mmHg 64%
11:00 +19°C° 0 mm 3 m/S 744 mmHg 59%
12:00 +20°C° 0 mm 3 m/S 744 mmHg 57%
13:00 +21°C° 0 mm 3 m/S 744 mmHg 54%
14:00 +21°C° 0 mm 3 m/S 744 mmHg 52%
15:00 +20°C° 0 mm 3 m/S 744 mmHg 60%
16:00 +18°C° 0 mm 3 m/S 744 mmHg 67%
17:00 +17°C° 0 mm 2 m/S 743 mmHg 74%
18:00 +16°C° 0 mm 2 m/S 744 mmHg 78%
19:00 +15°C° 0 mm 2 m/S 744 mmHg 81%
20:00 +14°C° 0 mm 2 m/S 744 mmHg 84%
21:00 +13°C° 0 mm 2 m/S 744 mmHg 86%
22:00 +13°C° 0 mm 2 m/S 744 mmHg 88%
23:00 +12°C° 0 mm 2 m/S 744 mmHg 89%

26 September, Samstag

Zeit Temperatur Niederschläge Wind Luftdruck Luftfeuchtigkeit
00:00 +12°C° 0 mm 2 m/S 744 mmHg 89%
01:00 +12°C° 0 mm 2 m/S 744 mmHg 88%
02:00 +12°C° 0 mm 2 m/S 744 mmHg 87%
03:00 +12°C° 0 mm 2 m/S 744 mmHg 87%
04:00 +10°C° 0 mm 2 m/S 744 mmHg 87%
05:00 +10°C° 0 mm 2 m/S 744 mmHg 87%
06:00 +12°C° 0 mm 3 m/S 744 mmHg 82%
07:00 +13°C° 0 mm 3 m/S 744 mmHg 77%
08:00 +14°C° 0 mm 4 m/S 744 mmHg 72%
09:00 +15°C° 0 mm 4 m/S 745 mmHg 68%
10:00 +18°C° 0 mm 4 m/S 745 mmHg 63%
11:00 +20°C° 0 mm 4 m/S 745 mmHg 59%
12:00 +20°C° 0 mm 4 m/S 745 mmHg 58%
13:00 +20°C° 0 mm 4 m/S 745 mmHg 57%
14:00 +21°C° 0 mm 4 m/S 745 mmHg 56%
15:00 +19°C° 0 mm 4 m/S 745 mmHg 62%
16:00 +18°C° 0 mm 3 m/S 745 mmHg 67%
17:00 +17°C° 0 mm 3 m/S 745 mmHg 73%
18:00 +16°C° 0 mm 3 m/S 745 mmHg 74%
19:00 +14°C° 0 mm 3 m/S 746 mmHg 76%
20:00 +13°C° 0 mm 3 m/S 746 mmHg 77%
21:00 +12°C° 0 mm 3 m/S 746 mmHg 76%
22:00 +11°C° 0 mm 3 m/S 746 mmHg 76%
23:00 +11°C° 0 mm 3 m/S 746 mmHg 76%

27 September, Sonntag

Zeit Temperatur Niederschläge Wind Luftdruck Luftfeuchtigkeit
00:00 +10°C° 0 mm 3 m/S 746 mmHg 77%
01:00 +10°C° 0 mm 3 m/S 746 mmHg 78%
02:00 +9°C° 0 mm 3 m/S 746 mmHg 79%
03:00 +9°C° 0 mm 3 m/S 746 mmHg 80%
04:00 +9°C° 0 mm 3 m/S 746 mmHg 81%
05:00 +9°C° 0 mm 3 m/S 746 mmHg 82%
06:00 +10°C° 0 mm 3 m/S 746 mmHg 79%
07:00 +11°C° 0 mm 3 m/S 746 mmHg 76%
08:00 +12°C° 0 mm 4 m/S 746 mmHg 73%
09:00 +14°C° 0 mm 4 m/S 747 mmHg 69%
10:00 +17°C° 0 mm 4 m/S 747 mmHg 64%
11:00 +18°C° 0 mm 4 m/S 747 mmHg 59%
12:00 +19°C° 0 mm 4 m/S 747 mmHg 58%
13:00 +19°C° 0 mm 4 m/S 747 mmHg 57%
14:00 +20°C° 0 mm 4 m/S 746 mmHg 56%
15:00 +18°C° 0 mm 4 m/S 746 mmHg 60%
16:00 +17°C° 0 mm 4 m/S 746 mmHg 64%
17:00 +16°C° 0 mm 3 m/S 746 mmHg 67%
18:00 +14°C° 0 mm 3 m/S 746 mmHg 66%
19:00 +13°C° 0 mm 4 m/S 746 mmHg 66%
20:00 +12°C° 0 mm 4 m/S 746 mmHg 65%
21:00 +11°C° 0 mm 4 m/S 746 mmHg 65%
22:00 +11°C° 0 mm 3 m/S 746 mmHg 66%
23:00 +10°C° 0 mm 3 m/S 746 mmHg 67%

28 September, Montag

Zeit Temperatur Niederschläge Wind Luftdruck Luftfeuchtigkeit
00:00 +10°C° 0 mm 3 m/S 746 mmHg 68%
01:00 +8°C° 0 mm 4 m/S 746 mmHg 69%
02:00 +8°C° 0 mm 4 m/S 746 mmHg 70%
03:00 +8°C° 0 mm 4 m/S 746 mmHg 70%
04:00 +8°C° 0 mm 4 m/S 746 mmHg 70%
05:00 +8°C° 0 mm 4 m/S 745 mmHg 70%
06:00 +8°C° 0 mm 4 m/S 745 mmHg 67%
07:00 +9°C° 0 mm 5 m/S 745 mmHg 64%
08:00 +9°C° 0 mm 5 m/S 745 mmHg 62%
09:00 +10°C° 0 mm 5 m/S 745 mmHg 60%
10:00 +12°C° 0 mm 5 m/S 745 mmHg 57%
11:00 +13°C° 0 mm 5 m/S 745 mmHg 55%
12:00 +12°C° 0 mm 5 m/S 745 mmHg 60%
13:00 +12°C° 0 mm 4 m/S 745 mmHg 66%
14:00 +11°C° 0 mm 4 m/S 745 mmHg 72%
15:00 +10°C° 0.2 mm 4 m/S 745 mmHg 77%
16:00 +8°C° 0.2 mm 5 m/S 745 mmHg 81%
17:00 +8°C° 0.2 mm 5 m/S 745 mmHg 86%
18:00 +8°C° 0.1 mm 5 m/S 746 mmHg 87%
19:00 +8°C° 0.1 mm 4 m/S 746 mmHg 88%
20:00 +8°C° 0.1 mm 4 m/S 746 mmHg 90%
21:00 +8°C° 0 mm 4 m/S 746 mmHg 90%
22:00 +9°C° 0 mm 3 m/S 746 mmHg 90%
23:00 +9°C° 0 mm 3 m/S 746 mmHg 91%
Mehr zeigen